Saint Ignace, MI

6:35 PM EST on February 20, 2017 (GMT -0500)
Mackinac Island

Weather History for KMCD - November, 2014

Change the Weather History Date:

Tuesday, November 18, 2014

  Actual Average Record
Temperature  
Mean Temperature 22 °F -  
Max Temperature 26 °F 39 °F 63 °F (2016)
Min Temperature 18 °F 30 °F 15 °F (1977)
Degree Days  
Heating Degree Days 43    
Moisture  
Dew Point 16 °F    
Average Humidity 75    
Maximum Humidity 86    
Minimum Humidity 56    
Precipitation  
Precipitation 0.00 in - - ()
Sea Level Pressure  
Sea Level Pressure 29.62 in    
Wind  
Wind Speed 21 mph (WNW)    
Max Wind Speed 28 mph    
Max Gust Speed 44 mph    
Visibility 7 miles    
Events Snow    
Averages and records for this station are not official NWS values.
T = Trace of Precipitation, MM = Missing Value Source: NWS Daily Summary

Daily Weather History Graph

Daily Weather History Graph

Search for Another Location

Airport or City:

Trip Planner

Search our weather history database for the weather conditions in past years. The results will help you decide how hot, cold, wet, or windy it might be!

Date:

Astronomy

Nov. 18, 2014 Rise Set
Actual Time 7:42 AM EST 5:04 PM EST
Civil Twilight 7:10 AM EST 5:36 PM EST
Nautical Twilight 6:33 AM EST 6:13 PM EST
Astronomical Twilight 5:58 AM EST 6:48 PM EST
Moon 3:27 AM EST (11/18) 3:09 PM EST (11/18)
Length of Visible Light 10h 26m
Length of Day
9h 21m
Waning Crescent, 15% of the Moon is Illuminated
Nov 18
Waning Crescent
Nov 22
New
Nov 29
First Quarter
Dec 6
Full
Dec 14
Last Quarter

Hourly Weather History & Observations

Time (EST) Temp. Windchill Dew Point Humidity Pressure Visibility Wind Dir Wind Speed Gust Speed Precip Events Conditions
12:17 AM 22.6 °F 7.1 °F 19.0 °F 86% 29.45 in 1.0 mi West 21.9 mph 32.2 mph N/A Snow Light Snow
12:37 AM 22.6 °F 7.9 °F 19.0 °F 86% 29.44 in 1.0 mi West 19.6 mph 35.7 mph N/A Snow Light Snow
12:56 AM 23.0 °F 6.3 °F 19.0 °F 85% 29.43 in 1.2 mi West 26.5 mph 43.7 mph N/A Snow Light Snow
1:17 AM 23.7 °F 6.9 °F 18.1 °F 79% 29.43 in 3.0 mi West 27.6 mph 41.4 mph N/A   Haze
1:37 AM 23.7 °F 6.9 °F 18.5 °F 80% 29.43 in 5.0 mi West 27.6 mph 39.1 mph N/A Snow Light Snow
1:57 AM 23.2 °F 6.5 °F 17.4 °F 79% 29.43 in 5.0 mi West 26.5 mph 33.4 mph N/A   Haze
2:17 AM 23.4 °F 7.4 °F 17.6 °F 79% 29.43 in 7.0 mi West 24.2 mph 35.7 mph N/A   Overcast
2:37 AM 23.0 °F 6.0 °F 17.2 °F 79% 29.43 in 5.0 mi West 27.6 mph 36.8 mph N/A   Haze
2:57 AM 22.8 °F 5.7 °F 17.2 °F 79% 29.44 in 5.0 mi West 27.6 mph 35.7 mph N/A   Haze
3:17 AM 22.8 °F 6.0 °F 17.1 °F 79% 29.44 in 7.0 mi West 26.5 mph 36.8 mph N/A   Overcast
3:37 AM 23.0 °F 6.6 °F 17.4 °F 79% 29.44 in 7.0 mi West 25.3 mph 36.8 mph N/A Snow Light Snow
3:57 AM 22.8 °F 7.0 °F 16.7 °F 77% 29.44 in 7.0 mi West 23.0 mph 38.0 mph N/A   Overcast
4:17 AM 23.0 °F 7.6 °F 16.7 °F 77% 29.44 in 10.0 mi West 21.9 mph 34.5 mph N/A   Overcast
4:37 AM 23.0 °F 7.6 °F 16.7 °F 77% 29.44 in 10.0 mi West 21.9 mph 33.4 mph N/A   Overcast
4:57 AM 23.0 °F 6.3 °F 16.7 °F 77% 29.45 in 10.0 mi West 26.5 mph 33.4 mph N/A   Overcast
5:17 AM 22.8 °F 6.3 °F 18.7 °F 84% 29.45 in 1.2 mi West 25.3 mph 36.8 mph N/A Snow Light Snow
5:37 AM 22.8 °F 7.7 °F 18.3 °F 83% 29.46 in 2.0 mi West 20.7 mph 34.5 mph N/A Snow Light Snow
5:57 AM 22.5 °F 6.9 °F 18.1 °F 83% 29.46 in 2.5 mi West 21.9 mph 31.1 mph N/A Snow Light Snow
6:17 AM 22.1 °F 7.2 °F 18.0 °F 84% 29.46 in 3.0 mi West 19.6 mph 29.9 mph N/A Snow Light Snow
6:37 AM 22.1 °F 7.6 °F 18.0 °F 84% 29.47 in 2.5 mi West 18.4 mph 31.1 mph N/A Snow Light Snow
6:57 AM 22.3 °F 7.8 °F 17.4 °F 82% 29.48 in 7.0 mi West 18.4 mph 27.6 mph N/A   Overcast
7:18 AM 23.0 °F 9.2 °F 18.3 °F 82% 29.48 in 7.0 mi WNW 17.3 mph 26.5 mph N/A   Overcast
7:37 AM 22.6 °F 8.7 °F 17.4 °F 80% 29.49 in 10.0 mi WNW 17.3 mph 29.9 mph N/A   Overcast
7:57 AM 22.1 °F 8.0 °F 16.3 °F 79% 29.50 in 10.0 mi WNW 17.3 mph 26.5 mph N/A   Overcast
8:17 AM 22.5 °F 9.9 °F 16.9 °F 79% 29.51 in 10.0 mi WNW 13.8 mph 23.0 mph N/A   Overcast
8:37 AM 22.8 °F 8.9 °F 16.7 °F 77% 29.52 in 10.0 mi WNW 17.3 mph 27.6 mph N/A   Overcast
8:57 AM 22.6 °F 8.3 °F 17.1 °F 79% 29.53 in 10.0 mi WNW 18.4 mph 25.3 mph N/A   Overcast
9:17 AM 22.3 °F 8.7 °F 16.2 °F 77% 29.54 in 10.0 mi WNW 16.1 mph 23.0 mph N/A   Overcast
9:37 AM 22.1 °F 10.0 °F 16.7 °F 80% 29.55 in 7.0 mi WNW 12.7 mph 23.0 mph N/A   Overcast
9:57 AM 22.5 °F 11.7 °F 17.8 °F 82% 29.55 in 3.0 mi WNW 10.4 mph 23.0 mph N/A   Overcast
10:17 AM 23.2 °F 9.8 °F 17.8 °F 80% 29.56 in 10.0 mi WNW 16.1 mph 27.6 mph N/A   Overcast
10:37 AM 23.7 °F 12.1 °F 17.6 °F 77% 29.57 in 10.0 mi WNW 12.7 mph 27.6 mph N/A   Mostly Cloudy
10:57 AM 23.9 °F 10.8 °F 17.6 °F 77% 29.59 in 5.0 mi WNW 16.1 mph 25.3 mph N/A Snow Light Snow
11:17 AM 24.3 °F 11.7 °F 18.5 °F 79% 29.60 in 3.0 mi WNW 15.0 mph 24.2 mph N/A Snow Light Snow
11:37 AM 23.9 °F 10.8 °F 18.0 °F 78% 29.61 in 2.0 mi NW 16.1 mph 24.2 mph N/A Snow Light Snow
11:58 AM 23.0 °F 10.6 °F 19.4 °F 86% 29.62 in 0.5 mi NW 13.8 mph 24.2 mph N/A Snow Snow
12:17 PM 24.6 °F 10.9 °F 18.1 °F 76% 29.62 in 7.0 mi NW 18.4 mph 25.3 mph N/A Snow Light Snow
12:37 PM 25.2 °F 10.8 °F 17.8 °F 74% 29.63 in 3.0 mi WNW 20.7 mph 26.5 mph N/A Snow Light Snow
12:58 PM 25.5 °F 10.9 °F 16.2 °F 68% 29.63 in 10.0 mi WNW 21.9 mph 29.9 mph N/A   Scattered Clouds
1:17 PM 26.1 °F 12.3 °F 16.5 °F 67% 29.64 in 10.0 mi WNW 19.6 mph 27.6 mph N/A   Scattered Clouds
1:37 PM 26.2 °F 11.5 °F 17.8 °F 70% 29.65 in 7.0 mi West 23.0 mph 28.8 mph N/A Snow Light Snow
1:57 PM 26.1 °F 12.7 °F 18.1 °F 72% 29.66 in 3.0 mi WNW 18.4 mph 31.1 mph N/A Snow Light Snow
2:17 PM 26.1 °F 11.6 °F 17.4 °F 70% 29.67 in 4.0 mi WNW 21.9 mph 32.2 mph N/A   Haze
2:37 PM 26.6 °F 11.7 °F 16.2 °F 65% 29.68 in 7.0 mi West 24.2 mph 34.5 mph N/A   Mostly Cloudy
2:57 PM 26.1 °F 12.7 °F 13.6 °F 59% 29.69 in 7.0 mi WNW 18.4 mph 28.8 mph N/A   Mostly Cloudy
3:17 PM 24.8 °F 9.3 °F 12.2 °F 59% 29.70 in 10.0 mi West 24.2 mph 32.2 mph N/A   Scattered Clouds
3:38 PM 24.6 °F 10.1 °F 11.7 °F 58% 29.71 in 10.0 mi West 20.7 mph 28.8 mph N/A   Clear
3:57 PM 24.3 °F 9.3 °F 10.8 °F 56% 29.72 in 10.0 mi WNW 21.9 mph 28.8 mph N/A   Clear
4:17 PM 23.9 °F 10.8 °F 12.0 °F 61% 29.73 in 10.0 mi WNW 16.1 mph 25.3 mph N/A   Scattered Clouds
4:38 PM 23.9 °F 10.3 °F 15.6 °F 71% 29.75 in 10.0 mi WNW 17.3 mph 26.5 mph N/A   Mostly Cloudy
4:57 PM 23.4 °F 8.8 °F 14.2 °F 68% 29.76 in 10.0 mi WNW 19.6 mph 26.5 mph N/A   Overcast
5:17 PM 23.0 °F 9.2 °F 18.5 °F 83% 29.77 in 1.5 mi WNW 17.3 mph 26.5 mph N/A Snow Light Snow
5:38 PM 22.1 °F 8.5 °F 15.8 °F 77% 29.78 in 10.0 mi WNW 16.1 mph 23.0 mph N/A   Mostly Cloudy
5:57 PM 22.3 °F 9.2 °F 14.4 °F 72% 29.79 in 10.0 mi WNW 15.0 mph 20.7 mph N/A   Scattered Clouds
6:18 PM 22.3 °F 9.7 °F 14.0 °F 71% 29.79 in 10.0 mi WNW 13.8 mph 20.7 mph N/A   Mostly Cloudy
6:37 PM 22.6 °F 9.6 °F 12.6 °F 65% 29.80 in 10.0 mi WNW 15.0 mph 20.7 mph N/A   Mostly Cloudy
6:57 PM 22.5 °F 10.5 °F 12.0 °F 64% 29.80 in 10.0 mi WNW 12.7 mph 23.0 mph N/A   Clear
7:18 PM 22.6 °F 9.2 °F 10.9 °F 61% 29.80 in 10.0 mi WNW 16.1 mph 21.9 mph N/A   Mostly Cloudy
7:37 PM 23.0 °F 9.6 °F 12.0 °F 63% 29.81 in 10.0 mi WNW 16.1 mph 24.2 mph N/A   Overcast
7:57 PM 22.6 °F 8.7 °F 12.2 °F 64% 29.82 in 10.0 mi WNW 17.3 mph 28.8 mph N/A   Overcast
8:18 PM 21.9 °F 8.7 °F 12.7 °F 68% 29.82 in 10.0 mi WNW 15.0 mph 26.5 mph N/A   Mostly Cloudy
8:37 PM 21.6 °F 8.8 °F 12.2 °F 67% 29.82 in 10.0 mi WNW 13.8 mph 25.3 mph N/A   Scattered Clouds
8:57 PM 21.6 °F 7.8 °F 12.4 °F 68% 29.83 in 10.0 mi WNW 16.1 mph 25.3 mph N/A   Overcast
9:18 PM 20.3 °F 9.8 °F 12.2 °F 71% 29.83 in 10.0 mi WNW 9.2 mph 17.3 mph N/A   Overcast
9:58 PM 18.7 °F 6.3 °F 12.4 °F 76% 29.84 in 5.0 mi WNW 11.5 mph - N/A Snow Light Snow
10:18 PM 19.2 °F 7.0 °F 13.5 °F 78% 29.84 in 7.0 mi WNW 11.5 mph 18.4 mph N/A Snow Light Snow
10:37 PM 21.2 °F 6.0 °F 14.4 °F 75% 29.84 in 10.0 mi West 19.6 mph 27.6 mph N/A   Overcast
10:57 PM 20.8 °F 5.5 °F 14.2 °F 75% 29.84 in 7.0 mi West 19.6 mph 28.8 mph N/A   Overcast
11:17 PM 20.3 °F 3.3 °F 14.0 °F 77% 29.85 in 5.0 mi West 24.2 mph 32.2 mph N/A Snow Light Snow
11:37 PM 20.3 °F 5.7 °F 13.1 °F 74% 29.85 in 7.0 mi West 17.3 mph 26.5 mph N/A Snow Light Snow
11:57 PM 20.1 °F 7.5 °F 12.9 °F 74% 29.84 in 5.0 mi West 12.7 mph 23.0 mph N/A Snow Light Snow